Grub im Wienerwald
Wetterdaten: aktuell Dienstag, 23.10.2018 08:33
Datum Zeit Temp. A. Feuchte A. Luftdruck Regen Wind Richtung Richtung Sonnenschein UV Solar Taupunkt Windchill Windben
23.10.2018 08:33 7,2 C 95 % 1024,1 hPa 0,0 l/m 3,2 km/h N 0 0 min 0,0 UV-I 25 W/m 6,5 C 7,2 C 3,2 km/h
23.10.2018 08:30 7,3 C 95 % 1024,1 hPa 0,0 l/m 3,2 km/h N 0 0 min 0,0 UV-I 25 W/m 6,6 C 7,3 C 3,2 km/h
23.10.2018 08:27 7,2 C 95 % 1024,2 hPa 0,0 l/m 3,2 km/h N 0 0 min 0,0 UV-I 35 W/m 6,5 C 7,2 C 3,2 km/h
23.10.2018 08:24 7,3 C 95 % 1024,2 hPa 0,0 l/m 3,2 km/h N 0 0 min 0,0 UV-I 37 W/m 6,6 C 7,3 C 3,2 km/h
23.10.2018 08:21 7,3 C 95 % 1024,3 hPa 0,0 l/m 3,2 km/h N 0 0 min 0,0 UV-I 25 W/m 6,6 C 7,3 C 3,2 km/h
23.10.2018 08:18 7,3 C 95 % 1024,4 hPa 0,0 l/m 3,2 km/h N 0 0 min 0,0 UV-I 19 W/m 6,6 C 7,3 C 3,2 km/h
23.10.2018 08:15 7,3 C 95 % 1024,4 hPa 0,0 l/m 3,2 km/h N 0 0 min 0,0 UV-I 16 W/m 6,6 C 7,3 C 3,2 km/h
23.10.2018 08:12 7,3 C 95 % 1024,5 hPa 0,0 l/m 3,2 km/h N 0 0 min 0,0 UV-I 12 W/m 6,6 C 7,3 C 3,2 km/h
23.10.2018 08:09 7,3 C 95 % 1024,5 hPa 0,0 l/m 3,2 km/h N 0 0 min 0,0 UV-I 9 W/m 6,6 C 7,3 C 3,2 km/h
23.10.2018 08:06 7,3 C 95 % 1024,5 hPa 0,0 l/m 3,2 km/h N 0 0 min 0,0 UV-I 9 W/m 6,6 C 7,3 C 3,2 km/h
23.10.2018 08:03 7,3 C 95 % 1024,6 hPa 0,0 l/m 3,2 km/h N 0 0 min 0,0 UV-I 11 W/m 6,6 C 7,3 C 3,2 km/h
23.10.2018 08:00 7,3 C 95 % 1024,6 hPa 0,0 l/m 3,2 km/h N 0 0 min 0,0 UV-I 11 W/m 6,6 C 7,3 C 3,2 km/h
23.10.2018 07:57 7,3 C 95 % 1024,7 hPa 0,0 l/m 3,2 km/h N 0 0 min 0,0 UV-I 9 W/m 6,6 C 7,3 C 3,2 km/h
23.10.2018 07:54 7,4 C 95 % 1024,7 hPa 0,0 l/m 3,2 km/h N 0 0 min 0,0 UV-I 7 W/m 6,7 C 7,4 C 3,2 km/h
23.10.2018 07:51 7,4 C 95 % 1024,7 hPa 0,0 l/m 3,2 km/h N 0 0 min 0,0 UV-I 7 W/m 6,7 C 7,4 C 3,2 km/h
23.10.2018 07:48 7,4 C 95 % 1024,6 hPa 0,0 l/m 3,2 km/h N 0 0 min 0,0 UV-I 7 W/m 6,7 C 7,4 C 3,2 km/h
23.10.2018 07:45 7,4 C 95 % 1024,6 hPa 0,0 l/m 3,2 km/h N 0 0 min 0,0 UV-I 5 W/m 6,7 C 7,4 C 3,2 km/h
23.10.2018 07:42 7,4 C 95 % 1024,7 hPa 0,0 l/m 3,2 km/h N 0 0 min 0,0 UV-I 5 W/m 6,7 C 7,4 C 3,2 km/h
23.10.2018 07:39 7,4 C 95 % 1024,7 hPa 0,0 l/m 3,2 km/h N 0 0 min 0,0 UV-I 7 W/m 6,7 C 7,4 C 3,2 km/h
23.10.2018 07:36 7,4 C 95 % 1024,7 hPa 0,0 l/m 3,2 km/h N 0 0 min 0,0 UV-I 0 W/m 6,7 C 7,4 C 3,2 km/h
23.10.2018 07:33 7,5 C 95 % 1024,7 hPa 0,0 l/m 3,2 km/h N 0 0 min 0,0 UV-I 0 W/m 6,8 C 7,5 C 3,2 km/h
23.10.2018 07:30 7,5 C 95 % 1024,7 hPa 0,0 l/m 3,2 km/h N 0 0 min 0,0 UV-I 0 W/m 6,8 C 7,5 C 3,2 km/h
23.10.2018 07:27 7,5 C 95 % 1024,7 hPa 0,0 l/m 3,2 km/h N 0 0 min 0,0 UV-I 0 W/m 6,8 C 7,5 C 3,2 km/h
23.10.2018 07:24 7,6 C 95 % 1024,8 hPa 0,0 l/m 3,2 km/h N 0 0 min 0,0 UV-I 0 W/m 6,9 C 7,6 C 3,2 km/h
23.10.2018 07:21 7,6 C 95 % 1024,8 hPa 0,0 l/m 3,2 km/h N 0 0 min 0,0 UV-I 0 W/m 6,9 C 7,6 C 3,2 km/h
23.10.2018 07:18 7,6 C 95 % 1024,8 hPa 0,0 l/m 3,2 km/h N 0 0 min 0,0 UV-I 0 W/m 6,9 C 7,6 C 3,2 km/h
23.10.2018 07:15 7,6 C 95 % 1024,8 hPa 0,0 l/m 3,2 km/h N 0 0 min 0,0 UV-I 0 W/m 6,9 C 7,6 C 3,2 km/h
23.10.2018 07:12 7,7 C 95 % 1024,9 hPa 0,0 l/m 3,2 km/h N 0 0 min 0,0 UV-I 0 W/m 7,0 C 7,7 C 3,2 km/h
23.10.2018 07:09 7,7 C 95 % 1025,0 hPa 0,0 l/m 3,2 km/h N 0 0 min 0,0 UV-I 0 W/m 7,0 C 7,7 C 3,2 km/h
23.10.2018 07:06 7,7 C 95 % 1024,9 hPa 0,0 l/m 3,2 km/h N 0 0 min 0,0 UV-I 0 W/m 7,0 C 7,7 C 3,2 km/h
23.10.2018 07:03 7,7 C 95 % 1024,9 hPa 0,0 l/m 3,2 km/h N 0 0 min 0,0 UV-I 0 W/m 7,0 C 7,7 C 3,2 km/h
23.10.2018 07:00 7,7 C 95 % 1024,9 hPa 0,0 l/m 3,2 km/h N 0 0 min 0,0 UV-I 0 W/m 7,0 C 7,7 C 3,2 km/h
23.10.2018 06:57 7,7 C 95 % 1025,0 hPa 0,0 l/m 3,2 km/h N 0 0 min 0,0 UV-I 0 W/m 7,0 C 7,7 C 3,2 km/h
23.10.2018 06:54 7,7 C 95 % 1025,1 hPa 0,0 l/m 3,2 km/h N 0 0 min 0,0 UV-I 0 W/m 7,0 C 7,7 C 3,2 km/h
23.10.2018 06:51 7,7 C 95 % 1025,1 hPa 0,0 l/m 3,2 km/h N 0 0 min 0,0 UV-I 0 W/m 7,0 C 7,7 C 3,2 km/h
23.10.2018 06:48 7,7 C 95 % 1025,2 hPa 0,0 l/m 3,2 km/h N 0 0 min 0,0 UV-I 0 W/m 7,0 C 7,7 C 3,2 km/h
23.10.2018 06:45 7,7 C 95 % 1025,2 hPa 0,0 l/m 3,2 km/h N 0 0 min 0,0 UV-I 0 W/m 7,0 C 7,7 C 3,2 km/h
23.10.2018 06:42 7,7 C 95 % 1025,1 hPa 0,0 l/m 3,2 km/h N 0 0 min 0,0 UV-I 0 W/m 7,0 C 7,7 C 3,2 km/h
23.10.2018 06:39 7,7 C 95 % 1025,3 hPa 0,0 l/m 3,2 km/h N 0 0 min 0,0 UV-I 0 W/m 7,0 C 7,7 C 3,2 km/h
23.10.2018 06:36 7,7 C 95 % 1025,2 hPa 0,0 l/m 3,2 km/h N 0 0 min 0,0 UV-I 0 W/m 7,0 C 7,7 C 3,2 km/h
23.10.2018 06:33 7,7 C 95 % 1025,2 hPa 0,0 l/m 3,2 km/h N 0 0 min 0,0 UV-I 0 W/m 7,0 C 7,7 C 3,2 km/h
23.10.2018 06:30 7,7 C 95 % 1025,2 hPa 0,0 l/m 3,2 km/h N 0 0 min 0,0 UV-I 0 W/m 7,0 C 7,7 C 3,2 km/h
23.10.2018 06:27 7,7 C 95 % 1025,2 hPa 0,0 l/m 3,2 km/h N 0 0 min 0,0 UV-I 0 W/m 7,0 C 7,7 C 3,2 km/h
23.10.2018 06:24 7,7 C 95 % 1025,3 hPa 0,0 l/m 3,2 km/h N 0 0 min 0,0 UV-I 0 W/m 7,0 C 7,7 C 3,2 km/h
23.10.2018 06:21 7,7 C 95 % 1025,3 hPa 0,0 l/m 3,2 km/h N 0 0 min 0,0 UV-I 0 W/m 7,0 C 7,7 C 3,2 km/h
23.10.2018 06:18 7,7 C 95 % 1025,2 hPa 0,0 l/m 3,2 km/h N 0 0 min 0,0 UV-I 0 W/m 7,0 C 7,7 C 3,2 km/h
23.10.2018 06:15 7,7 C 95 % 1025,2 hPa 0,0 l/m 3,2 km/h N 0 0 min 0,0 UV-I 0 W/m 7,0 C 7,7 C 3,2 km/h
23.10.2018 06:12 7,7 C 95 % 1025,2 hPa 0,0 l/m 3,2 km/h N 0 0 min 0,0 UV-I 0 W/m 7,0 C 7,7 C 3,2 km/h
23.10.2018 06:09 7,7 C 95 % 1025,3 hPa 0,0 l/m 3,2 km/h N 0 0 min 0,0 UV-I 0 W/m 7,0 C 7,7 C 3,2 km/h
23.10.2018 06:06 7,8 C 95 % 1025,3 hPa 0,0 l/m 3,2 km/h N 0 0 min 0,0 UV-I 0 W/m 7,0 C 7,8 C 3,2 km/h
23.10.2018 06:03 7,8 C 95 % 1025,3 hPa 0,0 l/m 3,2 km/h N 0 0 min 0,0 UV-I 0 W/m 7,0 C 7,8 C 3,2 km/h
23.10.2018 06:00 7,8 C 94 % 1025,2 hPa 0,0 l/m 3,2 km/h N 0 0 min 0,0 UV-I 0 W/m 6,9 C 7,8 C 3,2 km/h
23.10.2018 05:57 7,8 C 94 % 1025,3 hPa 0,0 l/m 3,2 km/h N 0 0 min 0,0 UV-I 0 W/m 6,9 C 7,8 C 3,2 km/h
23.10.2018 05:54 7,8 C 94 % 1025,3 hPa 0,0 l/m 3,2 km/h N 0 0 min 0,0 UV-I 0 W/m 6,9 C 7,8 C 3,2 km/h
23.10.2018 05:51 7,8 C 94 % 1025,3 hPa 0,0 l/m 3,2 km/h N 0 0 min 0,0 UV-I 0 W/m 6,9 C 7,8 C 3,2 km/h
23.10.2018 05:48 7,8 C 94 % 1025,3 hPa 0,0 l/m 3,2 km/h N 0 0 min 0,0 UV-I 0 W/m 6,9 C 7,8 C 3,2 km/h
23.10.2018 05:45 7,8 C 94 % 1025,3 hPa 0,0 l/m 3,2 km/h N 0 0 min 0,0 UV-I 0 W/m 6,9 C 7,8 C 3,2 km/h
23.10.2018 05:42 7,8 C 94 % 1025,3 hPa 0,0 l/m 3,2 km/h N 0 0 min 0,0 UV-I 0 W/m 6,9 C 7,8 C 3,2 km/h
23.10.2018 05:39 7,8 C 94 % 1025,2 hPa 0,0 l/m 3,2 km/h N 0 0 min 0,0 UV-I 0 W/m 6,9 C 7,8 C 3,2 km/h
23.10.2018 05:36 7,8 C 94 % 1025,3 hPa 0,0 l/m 3,2 km/h N 0 0 min 0,0 UV-I 0 W/m 6,9 C 7,8 C 3,2 km/h
23.10.2018 05:33 7,8 C 94 % 1025,3 hPa 0,0 l/m 3,2 km/h N 0 0 min 0,0 UV-I 0 W/m 6,9 C 7,8 C 3,2 km/h
23.10.2018 05:30 7,9 C 94 % 1025,3 hPa 0,0 l/m 3,2 km/h N 0 0 min 0,0 UV-I 0 W/m 7,0 C 7,9 C 3,2 km/h
23.10.2018 05:27 7,9 C 94 % 1025,4 hPa 0,0 l/m 3,2 km/h N 0 0 min 0,0 UV-I 0 W/m 7,0 C 7,9 C 3,2 km/h
23.10.2018 05:24 7,9 C 94 % 1025,5 hPa 0,0 l/m 3,2 km/h N 0 0 min 0,0 UV-I 0 W/m 7,0 C 7,9 C 3,2 km/h
23.10.2018 05:21 7,9 C 94 % 1025,5 hPa 0,0 l/m 3,2 km/h N 0 0 min 0,0 UV-I 0 W/m 7,0 C 7,9 C 3,2 km/h
23.10.2018 05:18 7,9 C 94 % 1025,5 hPa 0,2 l/m 3,2 km/h N 0 0 min 0,0 UV-I 0 W/m 7,0 C 7,9 C 3,2 km/h
23.10.2018 05:15 7,9 C 94 % 1025,5 hPa 0,0 l/m 3,2 km/h N 0 0 min 0,0 UV-I 0 W/m 7,0 C 7,9 C 3,2 km/h
23.10.2018 05:12 7,9 C 94 % 1025,5 hPa 0,0 l/m 3,2 km/h N 0 0 min 0,0 UV-I 0 W/m 7,0 C 7,9 C 3,2 km/h
23.10.2018 05:09 7,9 C 94 % 1025,5 hPa 0,0 l/m 3,2 km/h N 0 0 min 0,0 UV-I 0 W/m 7,0 C 7,9 C 3,2 km/h
23.10.2018 05:06 8,0 C 94 % 1025,5 hPa 0,0 l/m 3,2 km/h N 0 0 min 0,0 UV-I 0 W/m 7,1 C 8,0 C 3,2 km/h
23.10.2018 05:03 8,0 C 94 % 1025,5 hPa 0,0 l/m 3,2 km/h N 0 0 min 0,0 UV-I 0 W/m 7,1 C 8,0 C 3,2 km/h
23.10.2018 05:00 8,1 C 94 % 1025,6 hPa 0,0 l/m 3,2 km/h N 0 0 min 0,0 UV-I 0 W/m 7,2 C 8,1 C 3,2 km/h
23.10.2018 04:57 8,1 C 94 % 1025,5 hPa 0,0 l/m 3,2 km/h N 0 0 min 0,0 UV-I 0 W/m 7,2 C 8,1 C 3,2 km/h
23.10.2018 04:54 8,1 C 94 % 1025,7 hPa 0,0 l/m 3,2 km/h N-NW 337 0 min 0,0 UV-I 0 W/m 7,2 C 8,1 C 3,2 km/h
23.10.2018 04:51 8,1 C 94 % 1025,7 hPa 0,0 l/m 3,2 km/h N-NW 337 0 min 0,0 UV-I 0 W/m 7,2 C 8,1 C 3,2 km/h
23.10.2018 04:48 8,1 C 94 % 1025,7 hPa 0,0 l/m 3,2 km/h N-NW 337 0 min 0,0 UV-I 0 W/m 7,2 C 8,1 C 3,2 km/h
23.10.2018 04:45 8,1 C 94 % 1025,7 hPa 0,0 l/m 3,9 km/h N-NW 337 0 min 0,0 UV-I 0 W/m 7,2 C 8,1 C 8,0 km/h
23.10.2018 04:42 8,2 C 94 % 1025,8 hPa 0,0 l/m 6,8 km/h N-NW 337 0 min 0,0 UV-I 0 W/m 7,3 C 7,9 C 11,3 km/h
23.10.2018 04:39 8,2 C 94 % 1025,8 hPa 0,0 l/m 7,0 km/h N-NW 338 0 min 0,0 UV-I 0 W/m 7,3 C 7,7 C 12,9 km/h
23.10.2018 04:36 8,2 C 94 % 1025,8 hPa 0,2 l/m 3,8 km/h N-NW 337 0 min 0,0 UV-I 0 W/m 7,3 C 8,2 C 6,4 km/h
23.10.2018 04:33 8,2 C 94 % 1025,8 hPa 0,0 l/m 5,7 km/h N-NW 337 0 min 0,0 UV-I 0 W/m 7,3 C 8,2 C 11,3 km/h
23.10.2018 04:30 8,2 C 94 % 1025,8 hPa 0,0 l/m 5,3 km/h N-NW 331 0 min 0,0 UV-I 0 W/m 7,3 C 8,2 C 8,0 km/h
23.10.2018 04:27 8,2 C 93 % 1025,8 hPa 0,0 l/m 4,6 km/h N-NW 330 0 min 0,0 UV-I 0 W/m 7,1 C 8,2 C 8,0 km/h
23.10.2018 04:24 8,2 C 93 % 1025,9 hPa 0,0 l/m 5,9 km/h N-NW 330 0 min 0,0 UV-I 0 W/m 7,1 C 8,2 C 9,7 km/h
23.10.2018 04:21 8,3 C 93 % 1025,9 hPa 0,0 l/m 4,2 km/h N-NW 329 0 min 0,0 UV-I 0 W/m 7,2 C 8,3 C 8,0 km/h
23.10.2018 04:18 8,3 C 93 % 1025,9 hPa 0,2 l/m 5,4 km/h N-NW 329 0 min 0,0 UV-I 0 W/m 7,2 C 8,3 C 9,7 km/h
23.10.2018 04:15 8,3 C 93 % 1025,9 hPa 0,0 l/m 3,5 km/h N-NW 329 0 min 0,0 UV-I 0 W/m 7,2 C 8,3 C 8,0 km/h
23.10.2018 04:12 8,3 C 93 % 1025,9 hPa 0,0 l/m 6,4 km/h N-NW 329 0 min 0,0 UV-I 0 W/m 7,2 C 8,3 C 9,7 km/h
23.10.2018 04:09 8,3 C 93 % 1025,9 hPa 0,0 l/m 7,4 km/h N-NW 332 0 min 0,0 UV-I 0 W/m 7,2 C 7,5 C 12,9 km/h
23.10.2018 04:06 8,3 C 93 % 1025,9 hPa 0,0 l/m 4,6 km/h NW 326 0 min 0,0 UV-I 0 W/m 7,2 C 8,3 C 9,7 km/h
23.10.2018 04:03 8,3 C 93 % 1025,8 hPa 0,0 l/m 4,5 km/h NW 322 0 min 0,0 UV-I 0 W/m 7,2 C 8,3 C 8,0 km/h
_ Min-Zeit 20:39 15:03 08:30 - 17:27 - - - - - 20:30 20:39 17:27
Minimum _ 4,9 C 61 % 1024,1 hPa - 0,0 km/h - - - - - 3,2 C 4,9 C 0,0 km/h
_ Max-Zeit 15:27 09:00 09:45 02:33 13:18 - - 11:09 12:30 12:00 03:18 15:21 13:06
Maximum _ 13,7 C 96 % 1027,4 hPa 0,2 l/m 10,1 km/h
N-NO
- - 3 min 2,8 UV-I 547 W/m 7,4 C 13,6 C 19,3 km/h
NW
Durchschnitt _ 8,5 C 85 % 1025,9 hPa #1,2 l/m 4,3 km/h N-NW - #0 min. 0,0 UV-I 15 W/m 5,9 C 8,3 C 7,7 km/h
Schulla EDV